Year,Month,Day,Hour,Minute,Value (Times are PST for temperature in C)
2015,06,08,00,00,18.80
2015,06,08,00,01,18.80
2015,06,08,00,02,18.70
2015,06,08,00,03,18.70
2015,06,08,00,04,18.70
2015,06,08,00,05,18.70
2015,06,08,00,06,18.70
2015,06,08,00,07,18.60
2015,06,08,00,08,18.60
2015,06,08,00,09,18.60
2015,06,08,00,10,18.60
2015,06,08,00,11,18.60
2015,06,08,00,12,18.50
2015,06,08,00,13,18.60
2015,06,08,00,14,18.50
2015,06,08,00,15,18.50
2015,06,08,00,16,18.50
2015,06,08,00,17,18.50
2015,06,08,00,18,18.50
2015,06,08,00,19,18.50
2015,06,08,00,20,18.40
2015,06,08,00,21,18.40
2015,06,08,00,22,18.40
2015,06,08,00,23,18.40
2015,06,08,00,24,18.40
2015,06,08,00,25,18.40
2015,06,08,00,26,18.40
2015,06,08,00,27,18.40
2015,06,08,00,28,18.40
2015,06,08,00,29,18.30
2015,06,08,00,30,18.30
2015,06,08,00,31,18.30
2015,06,08,00,32,18.30
2015,06,08,00,33,18.30
2015,06,08,00,34,18.30
2015,06,08,00,35,18.30
2015,06,08,00,36,18.30
2015,06,08,00,37,18.30
2015,06,08,00,38,18.30
2015,06,08,00,39,18.30
2015,06,08,00,40,18.30
2015,06,08,00,41,18.20
2015,06,08,00,42,18.20
2015,06,08,00,43,18.20
2015,06,08,00,44,18.20
2015,06,08,00,45,18.20
2015,06,08,00,46,18.20
2015,06,08,00,47,18.10
2015,06,08,00,48,18.10
2015,06,08,00,49,18.10
2015,06,08,00,50,18.00
2015,06,08,00,51,18.00
2015,06,08,00,52,18.00
2015,06,08,00,53,17.90
2015,06,08,00,54,17.90
2015,06,08,00,55,17.90
2015,06,08,00,56,17.80
2015,06,08,00,57,17.80
2015,06,08,00,58,17.80
2015,06,08,00,59,17.80
2015,06,08,01,00,17.70
2015,06,08,01,01,17.70
2015,06,08,01,02,17.70
2015,06,08,01,03,17.60
2015,06,08,01,04,17.60
2015,06,08,01,05,17.60
2015,06,08,01,06,17.50
2015,06,08,01,07,17.50
2015,06,08,01,08,17.40
2015,06,08,01,09,17.40
2015,06,08,01,10,17.40
2015,06,08,01,11,17.40
2015,06,08,01,12,17.40
2015,06,08,01,13,17.40
2015,06,08,01,14,17.40
2015,06,08,01,15,17.40
2015,06,08,01,16,17.40
2015,06,08,01,17,17.40
2015,06,08,01,18,17.40
2015,06,08,01,19,17.40
2015,06,08,01,20,17.40
2015,06,08,01,21,17.40
2015,06,08,01,22,17.40
2015,06,08,01,23,17.40
2015,06,08,01,24,17.40
2015,06,08,01,25,17.30
2015,06,08,01,26,17.30
2015,06,08,01,27,17.30
2015,06,08,01,28,17.30
2015,06,08,01,29,17.30
2015,06,08,01,30,17.30
2015,06,08,01,31,17.30
2015,06,08,01,32,17.20
2015,06,08,01,33,17.20
2015,06,08,01,34,17.20
2015,06,08,01,35,17.20
2015,06,08,01,36,17.20
2015,06,08,01,37,17.20
2015,06,08,01,38,17.20
2015,06,08,01,39,17.20
2015,06,08,01,40,17.10
2015,06,08,01,41,17.10
2015,06,08,01,42,17.10
2015,06,08,01,43,17.10
2015,06,08,01,44,17.00
2015,06,08,01,45,17.00
2015,06,08,01,46,17.00
2015,06,08,01,47,17.00
2015,06,08,01,48,17.00
2015,06,08,01,49,16.90
2015,06,08,01,50,16.90
2015,06,08,01,51,16.90
2015,06,08,01,52,16.90
2015,06,08,01,53,16.90
2015,06,08,01,54,16.90
2015,06,08,01,55,16.80
2015,06,08,01,56,16.80
2015,06,08,01,57,16.80
2015,06,08,01,58,16.80
2015,06,08,01,59,16.80
2015,06,08,02,00,16.80
2015,06,08,02,01,16.80
2015,06,08,02,02,16.80
2015,06,08,02,03,16.80
2015,06,08,02,04,16.70
2015,06,08,02,05,16.70
2015,06,08,02,06,16.70
2015,06,08,02,07,16.70
2015,06,08,02,08,16.70
2015,06,08,02,09,16.70
2015,06,08,02,10,16.60
2015,06,08,02,11,16.60
2015,06,08,02,12,16.60
2015,06,08,02,13,16.60
2015,06,08,02,14,16.60
2015,06,08,02,15,16.60
2015,06,08,02,16,16.60
2015,06,08,02,17,16.50
2015,06,08,02,18,16.50
2015,06,08,02,19,16.50
2015,06,08,02,20,16.50
2015,06,08,02,21,16.50
2015,06,08,02,22,16.40
2015,06,08,02,23,16.40
2015,06,08,02,24,16.40
2015,06,08,02,25,16.40
2015,06,08,02,26,16.40
2015,06,08,02,27,16.40
2015,06,08,02,28,16.40
2015,06,08,02,29,16.40
2015,06,08,02,30,16.40
2015,06,08,02,31,16.40
2015,06,08,02,32,16.40
2015,06,08,02,33,16.40
2015,06,08,02,34,16.40
2015,06,08,02,35,16.30
2015,06,08,02,36,16.30
2015,06,08,02,37,16.30
2015,06,08,02,38,16.30
2015,06,08,02,39,16.30
2015,06,08,02,40,16.30
2015,06,08,02,41,16.30
2015,06,08,02,42,16.30
2015,06,08,02,43,16.30
2015,06,08,02,44,16.30
2015,06,08,02,45,16.30
2015,06,08,02,46,16.30
2015,06,08,02,47,16.20
2015,06,08,02,48,16.20
2015,06,08,02,49,16.20
2015,06,08,02,50,16.20
2015,06,08,02,51,16.10
2015,06,08,02,52,16.10
2015,06,08,02,53,16.10
2015,06,08,02,54,16.00
2015,06,08,02,55,16.00
2015,06,08,02,56,16.00
2015,06,08,02,57,15.90
2015,06,08,02,58,15.90
2015,06,08,02,59,15.90
2015,06,08,03,00,15.90
2015,06,08,03,01,15.90
2015,06,08,03,02,15.90
2015,06,08,03,06,15.90
2015,06,08,03,07,15.90
2015,06,08,03,08,15.90
2015,06,08,03,09,15.90
2015,06,08,03,10,15.90
2015,06,08,03,11,15.90
2015,06,08,03,12,15.90
2015,06,08,03,13,15.90
2015,06,08,03,14,15.90
2015,06,08,03,15,15.90
2015,06,08,03,16,15.80
2015,06,08,03,17,15.80
2015,06,08,03,18,15.80
2015,06,08,03,19,15.80
2015,06,08,03,20,15.80
2015,06,08,03,21,15.80
2015,06,08,03,22,15.80
2015,06,08,03,23,15.80
2015,06,08,03,24,15.80
2015,06,08,03,25,15.80
2015,06,08,03,26,15.70
2015,06,08,03,27,15.70
2015,06,08,03,28,15.70
2015,06,08,03,29,15.70
2015,06,08,03,30,15.70
2015,06,08,03,31,15.60
2015,06,08,03,32,15.60
2015,06,08,03,33,15.60
2015,06,08,03,34,15.60
2015,06,08,03,35,15.60
2015,06,08,03,36,15.60
2015,06,08,03,37,15.50
2015,06,08,03,38,15.50
2015,06,08,03,39,15.50
2015,06,08,03,40,15.50
2015,06,08,03,41,15.40
2015,06,08,03,42,15.40
2015,06,08,03,43,15.40
2015,06,08,03,44,15.40
2015,06,08,03,45,15.30
2015,06,08,03,46,15.30
2015,06,08,03,47,15.30
2015,06,08,03,48,15.30
2015,06,08,03,49,15.30
2015,06,08,03,50,15.30
2015,06,08,03,51,15.30
2015,06,08,03,52,15.30
2015,06,08,03,53,15.30
2015,06,08,03,54,15.20
2015,06,08,03,55,15.20
2015,06,08,03,56,15.20
2015,06,08,03,57,15.20
2015,06,08,03,58,15.20
2015,06,08,03,59,15.20
2015,06,08,04,00,15.20
2015,06,08,04,01,15.20
2015,06,08,04,02,15.20
2015,06,08,04,03,15.20
2015,06,08,04,04,15.20
2015,06,08,04,05,15.10
2015,06,08,04,06,15.10
2015,06,08,04,07,15.10
2015,06,08,04,08,15.10
2015,06,08,04,09,15.10
2015,06,08,04,10,15.10
2015,06,08,04,11,15.10
2015,06,08,04,12,15.10
2015,06,08,04,13,15.10
2015,06,08,04,14,15.10
2015,06,08,04,15,15.10
2015,06,08,04,16,15.10
2015,06,08,04,17,15.10
2015,06,08,04,18,15.10
2015,06,08,04,19,15.00
2015,06,08,04,20,15.00
2015,06,08,04,21,15.00
2015,06,08,04,22,15.00
2015,06,08,04,23,15.00
2015,06,08,04,24,15.00
2015,06,08,04,25,15.00
2015,06,08,04,26,14.90
2015,06,08,04,27,14.90
2015,06,08,04,28,14.90
2015,06,08,04,29,14.90
2015,06,08,04,30,14.90
2015,06,08,04,31,14.90
2015,06,08,04,32,14.90
2015,06,08,04,33,14.90
2015,06,08,04,34,14.80
2015,06,08,04,35,14.80
2015,06,08,04,36,14.80
2015,06,08,04,37,14.80
2015,06,08,04,38,14.80
2015,06,08,04,39,14.80
2015,06,08,04,40,14.80
2015,06,08,04,41,14.80
2015,06,08,04,42,14.80
2015,06,08,04,43,14.80
2015,06,08,04,44,14.80
2015,06,08,04,45,14.80
2015,06,08,04,46,14.80
2015,06,08,04,47,14.80
2015,06,08,04,48,14.80
2015,06,08,04,49,14.80
2015,06,08,04,50,14.80
2015,06,08,04,51,14.70
2015,06,08,04,52,14.70
2015,06,08,04,53,14.70
2015,06,08,04,54,14.70
2015,06,08,04,55,14.70
2015,06,08,04,56,14.70
2015,06,08,04,57,14.70
2015,06,08,04,58,14.70
2015,06,08,04,59,14.70
2015,06,08,05,00,14.70
2015,06,08,05,01,14.70
2015,06,08,05,02,14.70
2015,06,08,05,03,14.60
2015,06,08,05,04,14.60
2015,06,08,05,05,14.60
2015,06,08,05,06,14.60
2015,06,08,05,07,14.60
2015,06,08,05,08,14.60
2015,06,08,05,09,14.60
2015,06,08,05,10,14.60
2015,06,08,05,11,14.60
2015,06,08,05,12,14.60
2015,06,08,05,13,14.60
2015,06,08,05,14,14.60
2015,06,08,05,15,14.60
2015,06,08,05,16,14.60
2015,06,08,05,17,14.60
2015,06,08,05,18,14.60
2015,06,08,05,19,14.50
2015,06,08,05,20,14.60
2015,06,08,05,21,14.50
2015,06,08,05,22,14.50
2015,06,08,05,23,14.50
2015,06,08,05,24,14.50
2015,06,08,05,25,14.50
2015,06,08,05,26,14.50
2015,06,08,05,27,14.50
2015,06,08,05,28,14.50
2015,06,08,05,29,14.50
2015,06,08,05,30,14.50
2015,06,08,05,31,14.50
2015,06,08,05,32,14.50
2015,06,08,05,33,14.40
2015,06,08,05,34,14.40
2015,06,08,05,35,14.40
2015,06,08,05,36,14.40
2015,06,08,05,37,14.40
2015,06,08,05,38,14.40
2015,06,08,05,39,14.40
2015,06,08,05,40,14.40
2015,06,08,05,41,14.40
2015,06,08,05,42,14.40
2015,06,08,05,43,14.40
2015,06,08,05,44,14.40
2015,06,08,05,45,14.30
2015,06,08,05,46,14.30
2015,06,08,05,47,14.30
2015,06,08,05,48,14.30
2015,06,08,05,49,14.30
2015,06,08,05,50,14.30
2015,06,08,05,51,14.20
2015,06,08,05,52,14.20
2015,06,08,05,53,14.20
2015,06,08,05,54,14.20
2015,06,08,05,55,14.20
2015,06,08,05,56,14.20
2015,06,08,05,57,14.20
2015,06,08,05,58,14.20
2015,06,08,05,59,14.20
2015,06,08,06,00,14.20
2015,06,08,06,01,14.20
2015,06,08,06,02,14.20
2015,06,08,06,03,14.20
2015,06,08,06,04,14.20
2015,06,08,06,05,14.20
2015,06,08,06,06,14.20
2015,06,08,06,07,14.20
2015,06,08,06,08,14.20
2015,06,08,06,09,14.20
2015,06,08,06,10,14.20
2015,06,08,06,11,14.20
2015,06,08,06,12,14.20
2015,06,08,06,13,14.20
2015,06,08,06,14,14.20
2015,06,08,06,15,14.20
2015,06,08,06,16,14.20
2015,06,08,06,17,14.20
2015,06,08,06,18,14.20
2015,06,08,06,19,14.20
2015,06,08,06,20,14.20
2015,06,08,06,21,14.20
2015,06,08,06,22,14.20
2015,06,08,06,23,14.20
2015,06,08,06,24,14.20
2015,06,08,06,25,14.20
2015,06,08,06,26,14.30
2015,06,08,06,27,14.30
2015,06,08,06,28,14.30
2015,06,08,06,29,14.30
2015,06,08,06,30,14.40
2015,06,08,06,31,14.40
2015,06,08,06,32,14.40
2015,06,08,06,33,14.50
2015,06,08,06,34,14.50
2015,06,08,06,35,14.60
2015,06,08,06,36,14.70
2015,06,08,06,37,14.70
2015,06,08,06,38,14.80
2015,06,08,06,39,14.90
2015,06,08,06,40,15.00
2015,06,08,06,41,15.10
2015,06,08,06,42,15.20
2015,06,08,06,43,15.30
2015,06,08,06,44,15.30
2015,06,08,06,45,15.40
2015,06,08,06,46,15.50
2015,06,08,06,47,15.60
2015,06,08,06,48,15.60
2015,06,08,06,49,15.70
2015,06,08,06,50,15.80
2015,06,08,06,51,15.80
2015,06,08,06,52,15.80
2015,06,08,06,53,15.90
2015,06,08,06,54,16.00
2015,06,08,06,55,16.10
2015,06,08,06,56,16.20
2015,06,08,06,57,16.30
2015,06,08,06,58,16.30
2015,06,08,06,59,16.40
2015,06,08,07,00,16.40
2015,06,08,07,01,16.50
2015,06,08,07,02,16.50
2015,06,08,07,03,16.60
2015,06,08,07,04,16.60
2015,06,08,07,05,16.70
2015,06,08,07,06,16.70
2015,06,08,07,07,16.80
2015,06,08,07,08,16.80
2015,06,08,07,09,16.80
2015,06,08,07,10,16.90
2015,06,08,07,11,16.90
2015,06,08,07,12,17.00
2015,06,08,07,13,17.00
2015,06,08,07,14,17.10
2015,06,08,07,15,17.10
2015,06,08,07,16,17.20
2015,06,08,07,17,17.20
2015,06,08,07,18,17.30
2015,06,08,07,19,17.30
2015,06,08,07,20,17.30
2015,06,08,07,21,17.30
2015,06,08,07,22,17.30
2015,06,08,07,23,17.40
2015,06,08,07,24,17.40
2015,06,08,07,25,17.40
2015,06,08,07,26,17.40
2015,06,08,07,27,17.50
2015,06,08,07,28,17.50
2015,06,08,07,29,17.60
2015,06,08,07,30,17.70
2015,06,08,07,31,17.80
2015,06,08,07,32,17.80
2015,06,08,07,33,17.80
2015,06,08,07,34,17.90
2015,06,08,07,35,18.00
2015,06,08,07,36,18.10
2015,06,08,07,37,18.10
2015,06,08,07,38,18.10
2015,06,08,07,39,18.20
2015,06,08,07,40,18.20
2015,06,08,07,41,18.20
2015,06,08,07,42,18.30
2015,06,08,07,43,18.30
2015,06,08,07,44,18.40
2015,06,08,07,45,18.40
2015,06,08,07,46,18.30
2015,06,08,07,47,18.30
2015,06,08,07,48,18.30
2015,06,08,07,49,18.30
2015,06,08,07,50,18.40
2015,06,08,07,51,18.40
2015,06,08,07,52,18.40
2015,06,08,07,53,18.40
2015,06,08,07,54,18.40
2015,06,08,07,55,18.40
2015,06,08,07,56,18.40
2015,06,08,07,57,18.40
2015,06,08,07,58,18.50
2015,06,08,07,59,18.50
2015,06,08,08,00,18.60
2015,06,08,08,01,18.60
2015,06,08,08,02,18.70
2015,06,08,08,03,18.70
2015,06,08,08,04,18.70
2015,06,08,08,05,18.70
2015,06,08,08,06,18.60
2015,06,08,08,07,18.70
2015,06,08,08,08,18.70
2015,06,08,08,09,18.70
2015,06,08,08,10,18.70
2015,06,08,08,11,18.70
2015,06,08,08,12,18.70
2015,06,08,08,13,18.70
2015,06,08,08,14,18.70
2015,06,08,08,15,18.70
2015,06,08,08,16,18.80
2015,06,08,08,17,18.80
2015,06,08,08,18,18.80
2015,06,08,08,19,18.90
2015,06,08,08,20,19.00
2015,06,08,08,21,19.00
2015,06,08,08,22,19.10
2015,06,08,08,23,19.10
2015,06,08,08,24,19.10
2015,06,08,08,25,19.10
2015,06,08,08,26,19.20
2015,06,08,08,27,19.30
2015,06,08,08,28,19.40
2015,06,08,08,29,19.50
2015,06,08,08,30,19.60
2015,06,08,08,31,19.60
2015,06,08,08,32,19.70
2015,06,08,08,33,19.70
2015,06,08,08,34,19.70
2015,06,08,08,35,19.70
2015,06,08,08,36,19.70
2015,06,08,08,37,19.70
2015,06,08,08,38,19.70
2015,06,08,08,39,19.70
2015,06,08,08,40,19.70
2015,06,08,08,41,19.60
2015,06,08,08,42,19.70
2015,06,08,08,43,19.70
2015,06,08,08,44,19.70
2015,06,08,08,45,19.70
2015,06,08,08,46,19.70
2015,06,08,08,47,19.70
2015,06,08,08,48,19.70
2015,06,08,08,49,19.70
2015,06,08,08,50,19.80
2015,06,08,08,51,19.80
2015,06,08,08,52,19.90
2015,06,08,08,53,19.90
2015,06,08,08,54,20.00
2015,06,08,08,55,20.00
2015,06,08,08,56,20.10
2015,06,08,08,57,20.10
2015,06,08,08,58,20.10
2015,06,08,08,59,20.20
2015,06,08,09,00,20.20
2015,06,08,09,01,20.30
2015,06,08,09,02,20.30
2015,06,08,09,03,20.30
2015,06,08,09,04,20.30
2015,06,08,09,05,20.40
2015,06,08,09,06,20.40
2015,06,08,09,07,20.50
2015,06,08,09,08,20.60
2015,06,08,09,09,20.80
2015,06,08,09,10,20.90
2015,06,08,09,11,21.00
2015,06,08,09,12,21.00
2015,06,08,09,13,21.10
2015,06,08,09,14,21.10
2015,06,08,09,15,21.20
2015,06,08,09,16,21.20
2015,06,08,09,17,21.20
2015,06,08,09,18,21.30
2015,06,08,09,19,21.30
2015,06,08,09,20,21.20
2015,06,08,09,21,21.20
2015,06,08,09,22,21.20
2015,06,08,09,23,21.20
2015,06,08,09,24,21.20
2015,06,08,09,25,21.20
2015,06,08,09,26,21.30
2015,06,08,09,27,21.40
2015,06,08,09,28,21.50
2015,06,08,09,29,21.60
2015,06,08,09,30,21.80
2015,06,08,09,31,21.90
2015,06,08,09,32,22.00
2015,06,08,09,33,22.20
2015,06,08,09,34,22.30
2015,06,08,09,35,22.40
2015,06,08,09,36,22.40
2015,06,08,09,37,22.50
2015,06,08,09,38,22.50
2015,06,08,09,39,22.60
2015,06,08,09,40,22.60
2015,06,08,09,41,22.60
2015,06,08,09,42,22.50
2015,06,08,09,43,22.50
2015,06,08,09,44,22.60
2015,06,08,09,45,22.60
2015,06,08,09,46,22.60
2015,06,08,09,47,22.60
2015,06,08,09,48,22.60
2015,06,08,09,49,22.70
2015,06,08,09,50,22.80
2015,06,08,09,51,22.80
2015,06,08,09,52,22.80
2015,06,08,09,53,22.90
2015,06,08,09,54,22.90
2015,06,08,09,55,22.90
2015,06,08,09,56,22.90
2015,06,08,09,57,22.90
2015,06,08,09,58,22.90
2015,06,08,09,59,22.90
2015,06,08,10,00,23.00
2015,06,08,10,01,23.00
2015,06,08,10,02,23.10
2015,06,08,10,03,23.20
2015,06,08,10,04,23.20
2015,06,08,10,05,23.20
2015,06,08,10,06,23.20
2015,06,08,10,07,23.20
2015,06,08,10,08,23.20
2015,06,08,10,09,23.20
2015,06,08,10,10,23.30
2015,06,08,10,11,23.30
2015,06,08,10,12,23.40
2015,06,08,10,13,23.50
2015,06,08,10,14,23.50
2015,06,08,10,15,23.50
2015,06,08,10,16,23.50
2015,06,08,10,17,23.50
2015,06,08,10,18,23.40
2015,06,08,10,19,23.50
2015,06,08,10,20,23.50
2015,06,08,10,21,23.60
2015,06,08,10,22,23.70
2015,06,08,10,23,23.70
2015,06,08,10,24,23.70
2015,06,08,10,25,23.70
2015,06,08,10,26,23.70
2015,06,08,10,27,23.60
2015,06,08,10,28,23.70
2015,06,08,10,29,23.70
2015,06,08,10,30,23.70
2015,06,08,10,31,23.70
2015,06,08,10,32,23.70
2015,06,08,10,33,23.70
2015,06,08,10,34,23.70
2015,06,08,10,35,23.70
2015,06,08,10,36,23.70
2015,06,08,10,37,23.60
2015,06,08,10,38,23.60
2015,06,08,10,39,23.70
2015,06,08,10,40,23.70
2015,06,08,10,41,23.80
2015,06,08,10,42,23.80
2015,06,08,10,43,23.90
2015,06,08,10,44,24.00
2015,06,08,10,45,24.10
2015,06,08,10,46,24.10
2015,06,08,10,47,24.20
2015,06,08,10,48,24.20
2015,06,08,10,49,24.30
2015,06,08,10,50,24.30
2015,06,08,10,51,24.40
2015,06,08,10,52,24.50
2015,06,08,10,53,24.50
2015,06,08,10,54,24.60
2015,06,08,10,55,24.70
2015,06,08,10,56,24.80
2015,06,08,10,57,24.80
2015,06,08,10,58,24.90
2015,06,08,10,59,24.90
2015,06,08,11,00,24.90
2015,06,08,11,01,24.90
2015,06,08,11,02,24.90
2015,06,08,11,03,24.90
2015,06,08,11,04,24.90
2015,06,08,11,05,24.90
2015,06,08,11,06,25.00
2015,06,08,11,07,25.10
2015,06,08,11,08,25.10
2015,06,08,11,09,25.10
2015,06,08,11,10,25.20
2015,06,08,11,11,25.20
2015,06,08,11,12,25.20
2015,06,08,11,13,25.40
2015,06,08,11,14,25.40
2015,06,08,11,15,25.40
2015,06,08,11,16,25.50
2015,06,08,11,17,25.60
2015,06,08,11,18,25.70
2015,06,08,11,19,25.80
2015,06,08,11,20,25.90
2015,06,08,11,21,25.90
2015,06,08,11,22,25.90
2015,06,08,11,23,25.90
2015,06,08,11,24,25.90
2015,06,08,11,25,26.00
2015,06,08,11,26,26.10
2015,06,08,11,27,26.10
2015,06,08,11,28,26.10
2015,06,08,11,29,26.10
2015,06,08,11,30,26.20
2015,06,08,11,31,26.30
2015,06,08,11,32,26.30
2015,06,08,11,33,26.30
2015,06,08,11,34,26.30
2015,06,08,11,35,26.30
2015,06,08,11,36,26.30
2015,06,08,11,37,26.30
2015,06,08,11,38,26.30
2015,06,08,11,39,26.30
2015,06,08,11,40,26.20
2015,06,08,11,41,26.20
2015,06,08,11,42,26.30
2015,06,08,11,43,26.40
2015,06,08,11,44,26.50
2015,06,08,11,45,26.50
2015,06,08,11,46,26.60
2015,06,08,11,47,26.80
2015,06,08,11,48,26.90
2015,06,08,11,49,26.90
2015,06,08,11,50,27.00
2015,06,08,11,51,27.10
2015,06,08,11,52,27.10
2015,06,08,11,53,27.10
2015,06,08,11,54,27.00
2015,06,08,11,55,27.00
2015,06,08,11,56,27.00
2015,06,08,11,57,27.10
2015,06,08,11,58,27.10
2015,06,08,11,59,27.10
2015,06,08,12,00,27.10
2015,06,08,12,01,27.20
2015,06,08,12,02,27.30
2015,06,08,12,03,27.30
2015,06,08,12,04,27.40
2015,06,08,12,05,27.30
2015,06,08,12,06,27.30
2015,06,08,12,07,27.30
2015,06,08,12,08,27.30
2015,06,08,12,09,27.30
2015,06,08,12,10,27.40
2015,06,08,12,11,27.40
2015,06,08,12,12,27.50
2015,06,08,12,13,27.60
2015,06,08,12,14,27.70
2015,06,08,12,15,27.80
2015,06,08,12,16,27.80
2015,06,08,12,17,27.80
2015,06,08,12,18,27.90
2015,06,08,12,19,27.90
2015,06,08,12,20,27.90
2015,06,08,12,21,28.00
2015,06,08,12,22,28.00
2015,06,08,12,23,28.10
2015,06,08,12,24,28.10
2015,06,08,12,25,28.10
2015,06,08,12,26,28.20
2015,06,08,12,27,28.30
2015,06,08,12,28,28.40
2015,06,08,12,29,28.50
2015,06,08,12,30,28.50
2015,06,08,12,31,28.60
2015,06,08,12,32,28.60
2015,06,08,12,33,28.60
2015,06,08,12,34,28.60
2015,06,08,12,35,28.60
2015,06,08,12,36,28.60
2015,06,08,12,37,28.70
2015,06,08,12,38,28.60
2015,06,08,12,39,28.60
2015,06,08,12,40,28.60
2015,06,08,12,41,28.60
2015,06,08,12,42,28.70
2015,06,08,12,43,28.80
2015,06,08,12,44,29.00
2015,06,08,12,45,29.10
2015,06,08,12,46,29.10
2015,06,08,12,47,29.20
2015,06,08,12,48,29.10
2015,06,08,12,49,29.10
2015,06,08,12,50,29.10
2015,06,08,12,51,29.10
2015,06,08,12,52,29.20
2015,06,08,12,53,29.30
2015,06,08,12,54,29.50
2015,06,08,12,55,29.50
2015,06,08,12,56,29.50
2015,06,08,12,57,29.50
2015,06,08,12,58,29.40
2015,06,08,12,59,29.40
2015,06,08,13,00,29.40
2015,06,08,13,01,29.40
2015,06,08,13,02,29.40
2015,06,08,13,03,29.40
2015,06,08,13,04,29.30
2015,06,08,13,05,29.30
2015,06,08,13,06,29.30
2015,06,08,13,07,29.40
2015,06,08,13,08,29.50
2015,06,08,13,09,29.60
2015,06,08,13,10,29.60
2015,06,08,13,11,29.60
2015,06,08,13,12,29.60
2015,06,08,13,13,29.60
2015,06,08,13,14,29.60
2015,06,08,13,15,29.70
2015,06,08,13,16,29.80
2015,06,08,13,17,29.90
2015,06,08,13,18,30.00
2015,06,08,13,19,30.00
2015,06,08,13,20,30.00
2015,06,08,13,21,29.90
2015,06,08,13,22,30.00
2015,06,08,13,23,30.00
2015,06,08,13,24,30.10
2015,06,08,13,25,30.00
2015,06,08,13,26,30.00
2015,06,08,13,27,29.90
2015,06,08,13,28,29.90
2015,06,08,13,29,29.90
2015,06,08,13,30,29.80
2015,06,08,13,31,29.70
2015,06,08,13,32,29.70
2015,06,08,13,33,29.60
2015,06,08,13,34,29.60
2015,06,08,13,35,29.50
2015,06,08,13,36,29.50
2015,06,08,13,37,29.60
2015,06,08,13,38,29.60
2015,06,08,13,39,29.70
2015,06,08,13,40,29.80
2015,06,08,13,41,29.80
2015,06,08,13,42,29.80
2015,06,08,13,43,29.70
2015,06,08,13,44,29.70
2015,06,08,13,45,29.70
2015,06,08,13,46,29.80
2015,06,08,13,47,29.80
2015,06,08,13,48,29.80
2015,06,08,13,49,29.80
2015,06,08,13,50,29.70
2015,06,08,13,51,29.70
2015,06,08,13,52,29.70
2015,06,08,13,53,29.70
2015,06,08,13,54,29.70
2015,06,08,13,55,29.70
2015,06,08,13,56,29.60
2015,06,08,13,57,29.50
2015,06,08,13,58,29.50
2015,06,08,13,59,29.50
2015,06,08,14,00,29.50
2015,06,08,14,01,29.50
2015,06,08,14,02,29.60
2015,06,08,14,03,29.60
2015,06,08,14,04,29.70
2015,06,08,14,05,29.80
2015,06,08,14,06,29.80
2015,06,08,14,07,29.80
2015,06,08,14,08,29.80
2015,06,08,14,09,29.90
2015,06,08,14,10,29.90
2015,06,08,14,11,29.90
2015,06,08,14,12,29.90
2015,06,08,14,13,30.00
2015,06,08,14,14,30.10
2015,06,08,14,15,30.20
2015,06,08,14,16,30.30
2015,06,08,14,17,30.30
2015,06,08,14,18,30.20
2015,06,08,14,19,30.20
2015,06,08,14,20,30.20
2015,06,08,14,21,30.20
2015,06,08,14,22,30.20
2015,06,08,14,23,30.20
2015,06,08,14,24,30.20
2015,06,08,14,25,30.30
2015,06,08,14,26,30.30
2015,06,08,14,27,30.30
2015,06,08,14,28,30.30
2015,06,08,14,29,30.30
2015,06,08,14,30,30.40
2015,06,08,14,31,30.40
2015,06,08,14,32,30.30
2015,06,08,14,33,30.30
2015,06,08,14,34,30.20
2015,06,08,14,35,30.30
2015,06,08,14,36,30.30
2015,06,08,14,37,30.30
2015,06,08,14,38,30.40
2015,06,08,14,39,30.50
2015,06,08,14,40,30.50
2015,06,08,14,41,30.50
2015,06,08,14,42,30.50
2015,06,08,14,43,30.50
2015,06,08,14,44,30.60
2015,06,08,14,45,30.50
2015,06,08,14,46,30.50
2015,06,08,14,47,30.50
2015,06,08,14,48,30.50
2015,06,08,14,49,30.50
2015,06,08,14,50,30.60
2015,06,08,14,51,30.60
2015,06,08,14,52,30.50
2015,06,08,14,53,30.50
2015,06,08,14,54,30.50
2015,06,08,14,55,30.50
2015,06,08,14,56,30.50
2015,06,08,14,57,30.30
2015,06,08,14,58,30.30
2015,06,08,14,59,30.30
2015,06,08,15,00,30.30
2015,06,08,15,01,30.30
2015,06,08,15,02,30.30
2015,06,08,15,03,30.30
2015,06,08,15,04,30.20
2015,06,08,15,05,30.20
2015,06,08,15,06,30.20
2015,06,08,15,07,30.20
2015,06,08,15,08,30.20
2015,06,08,15,09,30.20
2015,06,08,15,10,30.30
2015,06,08,15,11,30.30
2015,06,08,15,12,30.40
2015,06,08,15,13,30.50
2015,06,08,15,14,30.50
2015,06,08,15,15,30.40
2015,06,08,15,16,30.40
2015,06,08,15,17,30.30
2015,06,08,15,18,30.30
2015,06,08,15,19,30.30
2015,06,08,15,20,30.30
2015,06,08,15,21,30.30
2015,06,08,15,22,30.30
2015,06,08,15,23,30.40
2015,06,08,15,24,30.40
2015,06,08,15,25,30.50
2015,06,08,15,26,30.50
2015,06,08,15,27,30.40
2015,06,08,15,28,30.40
2015,06,08,15,29,30.30
2015,06,08,15,30,30.30
2015,06,08,15,31,30.30
2015,06,08,15,32,30.30
2015,06,08,15,33,30.20
2015,06,08,15,34,30.20
2015,06,08,15,35,30.20
2015,06,08,15,36,30.30
2015,06,08,15,37,30.30
2015,06,08,15,38,30.30
2015,06,08,15,39,30.30
2015,06,08,15,40,30.40
2015,06,08,15,41,30.40
2015,06,08,15,42,30.30
2015,06,08,15,43,30.40
2015,06,08,15,44,30.40
2015,06,08,15,45,30.40
2015,06,08,15,46,30.50
2015,06,08,15,47,30.50
2015,06,08,15,48,30.50
2015,06,08,15,49,30.60
2015,06,08,15,50,30.60
2015,06,08,15,51,30.60
2015,06,08,15,52,30.70
2015,06,08,15,53,30.70
2015,06,08,15,54,30.50
2015,06,08,15,55,30.40
2015,06,08,15,56,30.40
2015,06,08,15,57,30.40
2015,06,08,15,58,30.50
2015,06,08,15,59,30.50
2015,06,08,16,00,30.50
2015,06,08,16,01,30.50
2015,06,08,16,02,30.50
2015,06,08,16,03,30.50
2015,06,08,16,04,30.40
2015,06,08,16,05,30.40
2015,06,08,16,06,30.30
2015,06,08,16,07,30.20
2015,06,08,16,08,30.20
2015,06,08,16,09,30.20
2015,06,08,16,10,30.20
2015,06,08,16,11,30.20
2015,06,08,16,12,30.20
2015,06,08,16,13,30.30
2015,06,08,16,14,30.40
2015,06,08,16,15,30.50
2015,06,08,16,16,30.60
2015,06,08,16,17,30.60
2015,06,08,16,18,30.70
2015,06,08,16,19,30.70
2015,06,08,16,20,30.60
2015,06,08,16,21,30.60
2015,06,08,16,22,30.50
2015,06,08,16,23,30.50
2015,06,08,16,24,30.50
2015,06,08,16,25,30.40
2015,06,08,16,26,30.40
2015,06,08,16,27,30.40
2015,06,08,16,28,30.40
2015,06,08,16,29,30.30
2015,06,08,16,30,30.30
2015,06,08,16,31,30.30
2015,06,08,16,32,30.30
2015,06,08,16,33,30.40
2015,06,08,16,34,30.40
2015,06,08,16,35,30.40
2015,06,08,16,36,30.30
2015,06,08,16,37,30.30
2015,06,08,16,38,30.30
2015,06,08,16,39,30.30
2015,06,08,16,40,30.40
2015,06,08,16,41,30.40
2015,06,08,16,42,30.50
2015,06,08,16,43,30.50
2015,06,08,16,44,30.60
2015,06,08,16,45,30.50
2015,06,08,16,46,30.50
2015,06,08,16,47,30.40
2015,06,08,16,48,30.40
2015,06,08,16,49,30.40
2015,06,08,16,50,30.40
2015,06,08,16,51,30.50
2015,06,08,16,52,30.50
2015,06,08,16,53,30.50
2015,06,08,16,54,30.50
2015,06,08,16,55,30.60
2015,06,08,16,56,30.60
2015,06,08,16,57,30.70
2015,06,08,16,58,30.60
2015,06,08,16,59,30.50
2015,06,08,17,00,30.50
2015,06,08,17,01,30.40
2015,06,08,17,02,30.30
2015,06,08,17,03,30.30
2015,06,08,17,04,30.30
2015,06,08,17,05,30.40
2015,06,08,17,06,30.50
2015,06,08,17,07,30.60
2015,06,08,17,08,30.50
2015,06,08,17,09,30.50
2015,06,08,17,10,30.50
2015,06,08,17,11,30.50
2015,06,08,17,12,30.50
2015,06,08,17,13,30.50
2015,06,08,17,14,30.50
2015,06,08,17,15,30.40
2015,06,08,17,16,30.40
2015,06,08,17,17,30.30
2015,06,08,17,18,30.20
2015,06,08,17,19,30.20
2015,06,08,17,20,30.20
2015,06,08,17,21,30.20
2015,06,08,17,22,30.20